Dewpoint
60 60 60 60 60 60 60 60 60 60 60 60 60 60 61 62 62 56 44 48 54 65 63 48 46 42 45 46 46 43 36 31 31 30 32 31 28 33 31 30 31 32 31 40 50
60 61 61 61 61 61 61 61 61 61 60 60 60 60 60 62 56 46 52 66 67 66 47 45 42 41 41 43 42 39 35 34 32 30 30 32 28 29 32 32 30 28 33 38 38
61 61 61 61 61 62 62 61 61 61 61 61 61 60 60 60 50 42 64 69 67 63 46 40 40 38 39 39 39 39 34 36 32 36 33 31 29 32 29 29 32 35 34 38 37
60 61 61 61 61 62 62 62 61 61 62 62 61 60 61 56 36 45 68 69 68 52 48 40 38 37 37 36 36 33 34 33 35 37 35 33 33 32 32 29 34 38 37 37 37
59 59 59 58 59 59 59 60 61 61 62 61 60 60 57 46 41 57 69 67 58 50 45 40 35 36 35 34 34 32 32 33 33 34 34 34 34 34 34 35 35 39 39 39 40
55 55 55 54 54 54 56 58 59 60 61 61 60 59 51 32 43 60 57 54 46 44 40 37 34 34 31 32 30 32 33 33 34 33 33 33 34 35 34 34 33 38 39 39 39
53 53 53 53 54 55 55 55 55 58 60 60 60 55 47 34 40 53 49 46 45 42 39 37 33 31 34 31 34 34 29 31 32 32 32 35 32 32 33 33 32 36 38 38 39
53 53 53 54 54 55 55 55 55 57 59 59 60 54 42 39 38 44 43 43 43 41 40 40 36 37 34 33 33 32 31 28 31 32 32 30 28 31 31 30 31 35 36 38 38
53 53 53 53 54 55 54 54 57 58 59 60 54 50 39 45 34 35 40 40 40 37 38 36 38 35 34 31 31 30 26 27 27 29 32 29 27 30 30 32 32 34 34 34 37
53 54 54 54 54 54 54 55 56 55 57 54 51 43 41 33 34 32 38 40 37 37 39 39 36 34 33 31 27 26 26 25 23 27 30 30 28 29 27 31 33 33 32 33 46
54 54 54 54 54 53 51 48 37 39 40 43 41 38 35 35 34 30 35 40 37 35 34 36 33 31 32 32 30 28 25 25 25 27 24 24 24 25 25 24 25 32 34 40 47
53 54 54 54 52 52 50 38 44 42 40 43 41 37 38 39 33 30 37 37 34 32 34 33 32 33 33 33 31 29 26 25 27 26 23 20 21 23 23 23 27 34 38 45 48
53 53 54 53 52 44 38 44 44 45 42 41 39 35 34 31 33 31 32 35 32 32 32 31 31 33 33 32 30 27 26 26 24 25 25 21 23 22 25 33 38 39 46 48 48
53 54 52 52 41 40 41 36 36 42 39 38 35 34 30 32 31 32 32 35 32 30 32 31 31 30 30 27 28 23 29 29 28 25 20 20 17 19 25 37 37 38 47 48 49
54 53 53 51 44 37 34 33 33 45 15 27 30 33 29 28 31 32 33 33 31 29 31 29 29 29 28 27 26 25 29 27 29 24 23 23 20 21 28 35 37 38 47 48 49
54 53 53 45 41 36 36 34 39 37 21 28 32 29 28 27 27 32 30 33 33 31 29 28 30 29 29 29 29 30 27 29 28 26 23 23 22 20 28 34 36 40 47 48 49
53 53 50 44 39 39 37 34 33 30 25 22 28 29 27 26 25 27 28 25 28 26 26 27 27 29 28 26 28 27 25 23 23 24 23 28 24 22 28 36 36 44 47 48 48
53 52 47 43 42 40 36 37 30 24 18 19 24 26 27 28 26 26 26 26 28 29 29 25 23 28 27 25 24 26 25 25 20 23 27 30 26 27 34 38 41 46 47 48 48
52 47 44 42 40 38 32 30 25 24 18 18 21 24 19 20 27 26 26 26 27 29 27 25 26 29 28 25 25 25 24 29 25 26 22 26 27 32 38 39 44 46 48 48 48
45 44 43 42 41 35 31 16 20 19 17 18 16 25 26 25 25 24 24 27 27 30 30 28 25 25 27 27 27 26 27 23 26 21 21 23 22 22 35 37 44 46 47 47 48
43 38 40 39 38 33 28 26 14 12 14 15 16 16 18 16 26 29 28 30 32 31 30 29 27 25 25 24 23 24 23 25 25 28 23 19 21 20 34 38 40 45 47 48 48
40 32 38 40 34 31 29 27 29 22 21 21 19 17 16 17 21 21 29 32 36 34 33 32 28 25 25 25 25 23 22 22 23 20 22 22 20 20 32 38 40 43 46 48 48
37 34 38 40 28 31 35 30 29 28 26 24 21 21 20 21 22 28 29 37 37 34 33 36 31 24 24 24 24 23 23 23 24 24 21 20 20 27 33 37 39 42 46 47 48
38 31 34 37 34 31 29 32 33 29 27 26 22 23 28 25 26 25 25 33 35 35 38 39 32 28 22 23 23 21 23 23 23 21 21 21 21 23 28 34 36 42 47 48 48
38 33 34 25 30 32 31 28 28 30 29 25 20 21 24 20 17 17 25 26 31 38 37 38 32 30 29 25 23 22 22 23 22 22 21 21 21 22 23 30 36 42 47 47 47
34 32 36 32 31 31 29 26 27 30 29 27 22 19 18 17 17 17 22 25 28 35 35 38 33 32 29 29 27 26 27 24 23 22 21 21 21 22 24 31 42 42 46 47 47
39 40 37 31 30 29 25 23 24 25 27 27 27 22 15 16 18 23 25 29 33 32 31 33 35 33 29 31 27 25 26 26 24 22 22 21 22 25 27 28 41 42 43 47 48
Lifted_Index
9 9 9 9 9 9 9 8 8 8 8 8 7 7 6 6 6 7 7 6 5 4 5 6 7 7 6 6 6 6 5 5 5 6 6 7 7 8 8 8 8 8 8 8 7
9 8 8 8 8 8 8 8 8 8 8 8 7 7 7 6 6 7 6 4 3 4 6 6 7 7 6 6 6 6 6 6 6 6 7 7 7 8 8 8 8 8 8 8 8
8 8 8 8 8 8 8 8 8 8 7 7 8 8 7 6 6 6 4 2 3 4 6 7 7 7 7 6 6 6 6 6 7 7 7 7 8 8 8 8 8 8 8 8 8
9 9 9 9 9 9 8 8 8 7 7 7 8 8 8 7 6 5 2 1 3 5 6 7 7 7 7 7 6 6 6 7 7 7 7 8 8 8 8 8 8 7 7 8 8
11 11 11 10 10 10 9 9 9 8 8 8 8 8 8 8 7 4 2 2 4 6 6 7 7 7 7 7 6 6 7 7 7 7 7 8 8 8 8 8 8 7 7 8 8
13 13 13 12 12 11 10 10 10 9 8 8 8 9 9 9 7 5 4 5 6 7 7 7 7 7 7 7 7 7 7 7 7 7 7 7 7 7 8 8 7 7 7 7 8
15 15 14 14 13 12 11 10 10 9 9 9 8 9 9 9 8 6 6 7 7 7 7 7 8 8 8 7 7 7 7 7 7 7 7 7 7 7 8 7 7 7 7 7 7
15 15 15 14 14 13 12 10 9 9 9 8 8 9 9 10 9 8 7 7 7 7 8 8 8 8 8 7 7 7 6 6 7 7 7 7 6 7 8 7 7 7 7 7 7
14 14 14 14 14 13 12 10 9 8 8 8 8 9 9 9 9 8 7 7 7 7 7 7 8 8 8 7 6 6 5 6 6 7 7 7 7 7 8 7 7 7 7 7 7
13 13 13 13 13 12 10 10 9 9 8 7 8 9 9 9 9 9 8 7 7 7 7 7 7 7 7 6 5 5 5 6 6 7 7 7 7 7 8 8 7 7 7 7 7
12 12 12 13 12 10 9 9 9 9 8 7 8 8 8 8 8 8 8 7 7 7 7 7 6 6 6 6 6 5 5 6 6 7 8 8 7 7 8 8 8 7 7 7 7
12 12 12 12 11 9 8 9 9 9 8 8 8 8 8 8 8 8 7 7 7 7 7 6 6 6 6 6 6 6 5 5 6 7 7 7 7 7 7 7 8 7 7 7 6
11 12 12 12 11 9 8 8 8 8 8 8 8 8 8 8 8 7 7 7 7 7 7 6 6 6 6 6 6 6 6 6 6 6 7 6 6 6 6 7 7 7 6 6 6
11 11 12 12 11 11 10 9 8 7 7 7 7 7 7 8 8 7 7 7 7 7 6 6 6 6 6 6 5 6 6 6 6 6 6 5 4 4 6 6 6 6 6 6 6
10 11 11 12 13 13 12 10 8 6 5 6 7 7 7 7 7 7 7 7 6 6 6 6 6 6 6 6 5 5 6 6 6 6 5 4 4 4 5 5 6 6 6 6 6
9 10 11 12 13 13 12 10 7 5 4 5 6 7 6 6 6 6 6 6 6 6 6 6 6 6 6 5 5 5 5 5 5 4 3 3 3 3 4 5 5 6 6 6 6
9 9 10 11 12 12 11 8 6 5 5 5 5 5 6 6 6 5 5 5 5 5 4 5 5 5 5 5 5 5 4 3 2 2 2 3 3 3 4 5 5 5 6 6 7
9 10 10 11 11 11 10 7 5 5 6 5 4 4 5 5 5 5 5 5 4 4 4 3 4 4 5 5 5 5 4 3 2 1 2 3 3 4 5 6 6 6 6 6 7
10 10 11 10 10 10 9 7 6 6 6 5 4 4 4 4 5 4 4 4 3 3 3 3 3 4 4 4 5 5 4 4 3 2 2 2 3 4 5 6 6 6 6 6 6
11 11 11 10 10 10 9 8 8 8 7 6 5 5 4 4 4 4 4 4 3 2 1 2 2 3 3 3 4 4 4 4 4 2 1 1 2 3 4 5 6 5 5 6 6
11 11 10 9 9 9 9 8 9 9 8 7 6 6 5 4 4 4 4 3 3 2 1 1 1 2 3 3 3 4 4 4 4 3 1 1 2 4 4 5 5 5 5 6 6
11 11 10 9 8 8 9 8 8 8 8 7 7 6 6 5 4 3 3 2 2 1 0 0 1 2 2 2 3 3 4 4 4 3 3 2 3 4 5 5 5 5 5 6 6
10 10 10 9 8 8 8 8 7 7 7 6 6 5 5 5 5 4 3 2 1 1 0 0 0 1 2 2 3 3 4 4 4 3 3 3 3 4 5 5 5 5 5 5 6
8 9 9 8 8 7 7 6 5 5 4 3 3 3 4 4 4 4 3 2 1 1 1 0 -0 -0 1 1 2 3 3 4 3 3 3 3 4 4 5 5 5 5 5 5 5
7 7 7 7 7 6 5 5 4 3 2 1 1 2 2 2 3 4 3 3 2 1 1 1 0 -0 -0 1 1 2 2 3 3 3 3 4 4 5 5 5 5 5 5 5 5
6 5 6 6 5 5 4 4 3 2 1 0 0 0 1 1 2 2 3 3 3 2 2 2 1 0 -0 -0 0 1 2 2 3 3 3 4 4 5 5 5 5 5 5 5 5
5 4 4 4 4 4 4 3 2 2 2 1 0 0 0 1 1 2 2 3 3 3 3 3 2 1 0 -0 -0 1 1 2 3 3 4 4 4 5 5 5 5 4 5 5 5